BCS7837 LGAV-EDDP

Flight info

Callsign BCS7837
Flight time 2h 46m
Altitude 34000
Route KRO T162 NEVRA UT514 PELAS DCT MAKED DCT LONTA UM749 UDVAR DCT BABIT DCT BEGLA DCT NAVTI DCT BODAL DCT ODLIV DCT LEGAZ DCT BEFRE DCT IVQOQ T951 YAWOY YAWOY1R
Aircraft B77L/H-SDE1E2E3FGHIJ2J3J4J5M1RWXY/LB1D1

Departure

Time 2026-05-05 18:17
Airport Athens Eleftherios Venizelos International Airport (LGAV)

Arrival

Time 2026-05-05 21:04
Airport Leipzig/Halle Airport (EDDP)
Time Latitude Longitude Altitude Speed Heading
2026-05-05 17:31 37.92691 23.93915 306 ft 0 kts 217°
2026-05-05 18:04 37.92698 23.93922 307 ft 4 kts 217°
2026-05-05 18:04 37.92715 23.93938 306 ft 4 kts 217°
2026-05-05 18:05 37.92737 23.93957 306 ft 4 kts 200°
2026-05-05 18:05 37.92756 23.93958 304 ft 3 kts 128°
2026-05-05 18:05 37.92772 23.93933 305 ft 4 kts 127°
2026-05-05 18:05 37.92776 23.93926 305 ft 2 kts 127°
2026-05-05 18:12 37.92775 23.93927 306 ft 1 kts 127°
2026-05-05 18:12 37.92751 23.93967 308 ft 10 kts 127°
2026-05-05 18:13 37.92688 23.94070 308 ft 19 kts 128°
2026-05-05 18:13 37.92634 23.94158 310 ft 4 kts 128°
2026-05-05 18:13 37.92606 23.94150 308 ft 7 kts 219°
2026-05-05 18:13 37.92541 23.94086 310 ft 15 kts 208°
2026-05-05 18:14 37.92460 23.94118 307 ft 14 kts 131°
2026-05-05 18:14 37.92415 23.94246 310 ft 18 kts 91°
2026-05-05 18:14 37.92441 23.94403 315 ft 20 kts 48°
2026-05-05 18:14 37.92477 23.94443 316 ft 0 kts 35°
2026-05-05 18:16 37.92991 23.94926 304 ft 110 kts 37°
2026-05-05 18:16 37.93505 23.95415 288 ft 149 kts 37°
2026-05-05 18:17 37.94213 23.96086 304 ft 181 kts 36°
2026-05-05 18:17 37.95248 23.97085 626 ft 190 kts 37°
2026-05-05 18:17 37.96303 23.98134 1006 ft 198 kts 38°
2026-05-05 18:18 37.97385 23.99170 1656 ft 195 kts 36°
2026-05-05 18:18 37.98469 24.00202 2237 ft 200 kts 36°
2026-05-05 18:18 37.99567 24.01254 2960 ft 197 kts 36°
2026-05-05 18:18 38.00634 24.02276 3594 ft 199 kts 35°
2026-05-05 18:19 38.01810 24.03401 3886 ft 224 kts 35°
2026-05-05 18:19 38.03134 24.04671 4150 ft 252 kts 35°
2026-05-05 18:19 38.04552 24.06039 4890 ft 257 kts 35°
2026-05-05 18:19 38.05960 24.07400 5744 ft 260 kts 35°
2026-05-05 18:20 38.07326 24.08925 6661 ft 263 kts 41°
2026-05-05 18:20 38.08598 24.10529 7484 ft 264 kts 43°
2026-05-05 18:20 38.09907 24.12210 8348 ft 267 kts 43°
2026-05-05 18:20 38.11204 24.13873 9174 ft 270 kts 42°
2026-05-05 18:21 38.12524 24.15555 10006 ft 273 kts 42°
2026-05-05 18:21 38.13877 24.17271 10634 ft 282 kts 42°
2026-05-05 18:21 38.15307 24.19074 10833 ft 307 kts 42°
2026-05-05 18:21 38.16882 24.21054 11039 ft 332 kts 42°
2026-05-05 18:22 38.18602 24.23216 11328 ft 353 kts 42°
2026-05-05 18:22 38.20345 24.25411 11944 ft 364 kts 42°
2026-05-05 18:22 38.22147 24.27682 12716 ft 370 kts 42°
2026-05-05 18:22 38.23987 24.30001 13570 ft 374 kts 42°
2026-05-05 18:23 38.25849 24.32347 14344 ft 378 kts 42°
2026-05-05 18:23 38.27728 24.34715 15073 ft 383 kts 41°
2026-05-05 18:23 38.29611 24.37090 15776 ft 388 kts 41°
2026-05-05 18:23 38.31527 24.39507 16491 ft 392 kts 41°
2026-05-05 18:24 38.33493 24.41989 17191 ft 397 kts 41°
2026-05-05 18:24 38.35457 24.44471 17902 ft 401 kts 41°
2026-05-05 18:24 38.37439 24.46978 18574 ft 405 kts 40°
2026-05-05 18:24 38.39440 24.49510 19173 ft 409 kts 40°
2026-05-05 18:25 38.41576 24.51837 19623 ft 406 kts 27°
2026-05-05 18:25 38.43261 24.52875 19919 ft 404 kts 15°
2026-05-05 18:25 38.46900 24.53688 20775 ft 398 kts 356°
2026-05-05 18:25 38.49645 24.53451 21397 ft 398 kts 353°
2026-05-05 18:26 38.52379 24.53104 22000 ft 400 kts 350°
2026-05-05 18:26 38.55083 24.52326 22584 ft 401 kts 341°
2026-05-05 18:26 38.57689 24.51075 23226 ft 403 kts 335°
2026-05-05 18:26 38.60210 24.49446 23833 ft 404 kts 329°
2026-05-05 18:27 38.62617 24.47645 24351 ft 406 kts 329°
2026-05-05 18:27 38.65036 24.45811 24908 ft 407 kts 329°
2026-05-05 18:27 38.67475 24.43955 25465 ft 408 kts 329°
2026-05-05 18:27 38.69909 24.42105 25993 ft 409 kts 329°
2026-05-05 18:28 38.74831 24.38377 26890 ft 415 kts 329°
2026-05-05 18:28 38.77331 24.36489 27402 ft 417 kts 329°
2026-05-05 18:28 38.79805 24.34622 27941 ft 418 kts 329°
2026-05-05 18:29 38.82315 24.32727 28422 ft 419 kts 329°
2026-05-05 18:29 38.84836 24.30824 28867 ft 421 kts 329°
2026-05-05 18:29 38.87353 24.28922 29279 ft 423 kts 329°
2026-05-05 18:29 38.89905 24.26992 29685 ft 425 kts 328°
2026-05-05 18:30 38.92440 24.25073 30089 ft 426 kts 328°
2026-05-05 18:30 38.95030 24.23112 30489 ft 426 kts 328°
2026-05-05 18:30 38.97554 24.21199 30863 ft 426 kts 329°
2026-05-05 18:30 39.00101 24.19266 31130 ft 429 kts 329°
2026-05-05 18:31 39.02667 24.17317 31507 ft 428 kts 328°
2026-05-05 18:31 39.05228 24.15371 31952 ft 425 kts 328°
2026-05-05 18:31 39.07759 24.13446 32387 ft 423 kts 328°
2026-05-05 18:31 39.10294 24.11516 32791 ft 422 kts 328°
2026-05-05 18:32 39.12795 24.09610 33156 ft 421 kts 328°
2026-05-05 18:32 39.15311 24.07691 33538 ft 420 kts 328°
2026-05-05 18:32 39.17814 24.05782 34009 ft 414 kts 328°
2026-05-05 18:32 39.20307 24.03876 33991 ft 418 kts 328°
2026-05-05 18:33 39.25274 24.00077 34040 ft 417 kts 328°
2026-05-05 18:33 39.30235 23.96276 34043 ft 417 kts 328°
2026-05-05 18:34 39.35201 23.92465 34038 ft 417 kts 328°
2026-05-05 18:34 39.40179 23.88638 34038 ft 417 kts 328°
2026-05-05 18:35 39.45140 23.84818 34032 ft 417 kts 328°
2026-05-05 18:35 39.50115 23.80981 34032 ft 419 kts 328°
2026-05-05 18:36 39.55105 23.77126 34036 ft 421 kts 328°
2026-05-05 18:36 39.60154 23.73219 34024 ft 422 kts 328°
2026-05-05 18:37 39.65164 23.69335 34029 ft 422 kts 328°
2026-05-05 18:37 39.70184 23.65436 34036 ft 421 kts 328°
2026-05-05 18:38 39.75185 23.61546 34028 ft 423 kts 328°
2026-05-05 18:38 39.80240 23.57606 34033 ft 424 kts 328°
2026-05-05 18:39 39.85322 23.53639 34032 ft 426 kts 328°
2026-05-05 18:39 39.90414 23.49657 34030 ft 427 kts 328°
2026-05-05 18:40 39.95480 23.45689 34025 ft 427 kts 328°
2026-05-05 18:40 40.00575 23.41691 34013 ft 429 kts 328°
2026-05-05 18:41 40.05704 23.37659 34022 ft 431 kts 328°
2026-05-05 18:41 40.10838 23.33616 34018 ft 431 kts 328°
2026-05-05 18:42 40.15147 23.30217 34019 ft 432 kts 328°
2026-05-05 18:42 40.20256 23.26180 34011 ft 431 kts 328°
2026-05-05 18:43 40.25400 23.22109 34013 ft 432 kts 328°
2026-05-05 18:43 40.30541 23.18032 34006 ft 432 kts 328°
2026-05-05 18:44 40.35688 23.13944 34011 ft 433 kts 328°
2026-05-05 18:44 40.40838 23.09846 33972 ft 433 kts 328°
2026-05-05 18:45 40.45948 23.05772 33991 ft 432 kts 327°
2026-05-05 18:45 40.51093 23.01663 33994 ft 432 kts 327°
2026-05-05 18:46 40.56116 22.97644 33995 ft 431 kts 327°
2026-05-05 18:46 40.61250 22.93529 33995 ft 431 kts 327°
2026-05-05 18:47 40.66366 22.89420 34000 ft 430 kts 327°
2026-05-05 18:47 40.71488 22.85299 33986 ft 431 kts 328°
2026-05-05 18:48 40.76609 22.81171 33984 ft 432 kts 328°
2026-05-05 18:48 40.81746 22.77024 33986 ft 433 kts 327°
2026-05-05 18:49 40.86852 22.72894 33993 ft 433 kts 327°
2026-05-05 18:49 40.91991 22.68729 33996 ft 433 kts 327°
2026-05-05 18:50 40.97133 22.64553 33997 ft 435 kts 328°
2026-05-05 18:50 41.02286 22.60361 34004 ft 436 kts 327°
2026-05-05 18:51 41.07462 22.56143 34003 ft 438 kts 327°
2026-05-05 18:51 41.12648 22.51862 34006 ft 439 kts 325°
2026-05-05 18:52 41.17478 22.46913 34005 ft 439 kts 321°
2026-05-05 18:52 41.22185 22.41839 34016 ft 439 kts 320°
2026-05-05 18:53 41.26927 22.36736 34006 ft 438 kts 320°
2026-05-05 18:53 41.31667 22.31648 34013 ft 437 kts 320°
2026-05-05 18:54 41.36396 22.26572 34019 ft 437 kts 320°
2026-05-05 18:54 41.41116 22.21495 34007 ft 436 kts 320°
2026-05-05 18:55 41.45829 22.16414 34011 ft 437 kts 321°
2026-05-05 18:55 41.50537 22.11332 34006 ft 436 kts 320°
2026-05-05 18:56 41.55230 22.06253 34005 ft 436 kts 320°
2026-05-05 18:56 41.59913 22.01175 34003 ft 436 kts 320°
2026-05-05 18:57 41.64560 21.96246 34003 ft 436 kts 324°
2026-05-05 18:57 41.69770 21.92242 34000 ft 438 kts 333°
2026-05-05 18:58 41.75346 21.88890 34009 ft 439 kts 334°
2026-05-05 18:58 41.80893 21.85557 33997 ft 440 kts 334°
2026-05-05 18:59 41.86511 21.82150 33997 ft 441 kts 333°
2026-05-05 18:59 41.92069 21.78758 33998 ft 442 kts 333°
2026-05-05 19:00 41.97670 21.75329 33991 ft 442 kts 333°
2026-05-05 19:00 42.03193 21.71941 33988 ft 442 kts 333°
2026-05-05 19:01 42.08751 21.68525 33999 ft 441 kts 333°
2026-05-05 19:01 42.14347 21.65081 34005 ft 440 kts 333°
2026-05-05 19:02 42.19909 21.61649 34019 ft 441 kts 333°
2026-05-05 19:02 42.25475 21.58208 34010 ft 442 kts 333°
2026-05-05 19:03 42.31061 21.54749 34011 ft 444 kts 333°
2026-05-05 19:03 42.36661 21.51274 34011 ft 445 kts 333°
2026-05-05 19:04 42.42289 21.47775 34012 ft 447 kts 333°
2026-05-05 19:04 42.47943 21.44253 34020 ft 447 kts 333°
2026-05-05 19:05 42.53598 21.40723 34029 ft 447 kts 333°
2026-05-05 19:05 42.59258 21.37183 34029 ft 448 kts 333°
2026-05-05 19:06 42.64919 21.33635 34056 ft 448 kts 333°
2026-05-05 19:06 42.70582 21.30079 34034 ft 448 kts 333°
2026-05-05 19:07 42.76212 21.26536 34056 ft 448 kts 333°
2026-05-05 19:07 42.81873 21.22967 34032 ft 448 kts 333°
2026-05-05 19:08 42.87535 21.19390 34031 ft 448 kts 333°
2026-05-05 19:08 42.93187 21.15811 34026 ft 448 kts 333°
2026-05-05 19:09 42.98838 21.12226 34041 ft 447 kts 333°
2026-05-05 19:09 43.04474 21.08642 34019 ft 448 kts 333°
2026-05-05 19:10 43.10115 21.05049 34023 ft 448 kts 333°
2026-05-05 19:10 43.15665 21.01356 34020 ft 448 kts 330°
2026-05-05 19:11 43.21054 20.97475 34007 ft 448 kts 330°
2026-05-05 19:11 43.26576 20.93471 34014 ft 450 kts 330°
2026-05-05 19:12 43.32096 20.89498 34018 ft 451 kts 330°
2026-05-05 19:12 43.37665 20.85504 34004 ft 452 kts 330°
2026-05-05 19:13 43.43246 20.81500 34004 ft 453 kts 330°
2026-05-05 19:13 43.48841 20.77479 33986 ft 454 kts 330°
2026-05-05 19:14 43.54402 20.73471 33994 ft 454 kts 330°
2026-05-05 19:14 43.59986 20.69438 33988 ft 454 kts 330°
2026-05-05 19:15 43.65551 20.65410 33976 ft 455 kts 330°
2026-05-05 19:15 43.71135 20.61359 33963 ft 455 kts 329°
2026-05-05 19:16 43.76707 20.57310 33966 ft 456 kts 329°
2026-05-05 19:16 43.82325 20.53218 33967 ft 456 kts 329°
2026-05-05 19:17 43.87913 20.49138 33968 ft 457 kts 329°
2026-05-05 19:17 43.93441 20.45094 33970 ft 458 kts 329°
2026-05-05 19:18 43.99050 20.40982 33970 ft 459 kts 329°
2026-05-05 19:18 44.04678 20.36848 33973 ft 460 kts 329°
2026-05-05 19:19 44.10328 20.32688 33970 ft 461 kts 329°
2026-05-05 19:19 44.15983 20.28515 33983 ft 461 kts 329°
2026-05-05 19:20 44.21666 20.24312 33975 ft 462 kts 329°
2026-05-05 19:20 44.27346 20.20104 33968 ft 462 kts 329°
2026-05-05 19:21 44.32984 20.15916 33973 ft 462 kts 329°
2026-05-05 19:21 44.38618 20.11722 33965 ft 461 kts 329°
2026-05-05 19:22 44.44280 20.07498 33965 ft 461 kts 329°
2026-05-05 19:22 44.49929 20.03275 33966 ft 460 kts 329°
2026-05-05 19:23 44.55435 19.99149 33963 ft 460 kts 329°
2026-05-05 19:23 44.61076 19.94913 33965 ft 460 kts 329°
2026-05-05 19:24 44.66703 19.90677 33960 ft 461 kts 329°
2026-05-05 19:24 44.72334 19.86429 33967 ft 462 kts 329°
2026-05-05 19:25 44.77917 19.82209 33963 ft 463 kts 329°
2026-05-05 19:25 44.83503 19.77977 33963 ft 463 kts 329°
2026-05-05 19:26 44.88256 19.74368 33969 ft 464 kts 329°
2026-05-05 19:26 44.94858 19.69345 33971 ft 465 kts 329°
2026-05-05 19:27 44.99605 19.65724 33967 ft 466 kts 329°
2026-05-05 19:27 45.05284 19.61384 33970 ft 466 kts 329°
2026-05-05 19:28 45.10982 19.57019 33967 ft 466 kts 329°
2026-05-05 19:28 45.16681 19.52646 33971 ft 465 kts 328°
2026-05-05 19:29 45.22336 19.48295 33964 ft 465 kts 328°
2026-05-05 19:29 45.28023 19.43908 33963 ft 463 kts 328°
2026-05-05 19:30 45.33681 19.39533 33966 ft 463 kts 328°
2026-05-05 19:30 45.39316 19.35167 33969 ft 463 kts 328°
2026-05-05 19:31 45.44903 19.30828 33963 ft 463 kts 328°
2026-05-05 19:31 45.50483 19.26485 33967 ft 463 kts 328°
2026-05-05 19:32 45.56111 19.22094 33955 ft 464 kts 328°
2026-05-05 19:32 45.61782 19.17660 33973 ft 465 kts 328°
2026-05-05 19:33 45.67387 19.13266 33966 ft 467 kts 328°
2026-05-05 19:33 45.73061 19.08809 33968 ft 467 kts 328°
2026-05-05 19:34 45.78778 19.04306 33949 ft 468 kts 328°
2026-05-05 19:35 45.87216 18.97643 33947 ft 470 kts 328°
2026-05-05 19:35 45.92897 18.93137 33950 ft 470 kts 327°
2026-05-05 19:36 45.98434 18.88228 33953 ft 469 kts 324°
2026-05-05 19:36 46.03869 18.83176 33960 ft 470 kts 324°
2026-05-05 19:37 46.09376 18.78051 33954 ft 470 kts 324°
2026-05-05 19:37 46.14884 18.72949 33951 ft 471 kts 324°
2026-05-05 19:38 46.20371 18.67870 33948 ft 471 kts 325°
2026-05-05 19:38 46.25900 18.62743 33950 ft 471 kts 325°
2026-05-05 19:39 46.31406 18.57621 33946 ft 472 kts 325°
2026-05-05 19:39 46.36940 18.52463 33943 ft 472 kts 325°
2026-05-05 19:40 46.42442 18.47319 33944 ft 472 kts 325°
2026-05-05 19:40 46.47975 18.42135 33939 ft 472 kts 325°
2026-05-05 19:41 46.53462 18.36981 33943 ft 473 kts 325°
2026-05-05 19:41 46.58934 18.31828 33934 ft 474 kts 325°
2026-05-05 19:42 46.64464 18.26609 33932 ft 474 kts 325°
2026-05-05 19:42 46.69896 18.21469 33929 ft 475 kts 325°
2026-05-05 19:43 46.75423 18.16227 33933 ft 475 kts 325°
2026-05-05 19:43 46.80929 18.10991 33928 ft 475 kts 325°
2026-05-05 19:44 46.86571 18.05613 33918 ft 475 kts 325°
2026-05-05 19:44 46.91751 18.00663 33918 ft 474 kts 325°
2026-05-05 19:45 46.93466 17.99022 33915 ft 473 kts 324°
2026-05-05 19:45 46.98923 17.93790 33908 ft 473 kts 324°
2026-05-05 19:46 47.04375 17.88550 33922 ft 472 kts 324°
2026-05-05 19:46 47.09861 17.83265 33895 ft 471 kts 324°
2026-05-05 19:47 47.14885 17.78413 33889 ft 469 kts 324°
2026-05-05 19:47 47.20135 17.73331 33878 ft 468 kts 324°
2026-05-05 19:48 47.25533 17.68094 33883 ft 468 kts 324°
2026-05-05 19:48 47.31004 17.62770 33890 ft 469 kts 324°
2026-05-05 19:49 47.36469 17.57439 33886 ft 472 kts 324°
2026-05-05 19:49 47.41908 17.52120 33891 ft 475 kts 324°
2026-05-05 19:50 47.47409 17.46728 33884 ft 476 kts 324°
2026-05-05 19:50 47.52943 17.41289 33871 ft 477 kts 324°
2026-05-05 19:51 47.58474 17.35841 33864 ft 477 kts 324°
2026-05-05 19:51 47.64005 17.30378 33838 ft 476 kts 323°
2026-05-05 19:52 47.69466 17.24968 33827 ft 475 kts 323°
2026-05-05 19:52 47.75000 17.19473 33818 ft 474 kts 323°
2026-05-05 19:53 47.80390 17.14106 33812 ft 474 kts 323°
2026-05-05 19:53 47.85893 17.08678 33799 ft 474 kts 324°
2026-05-05 19:54 47.91463 17.03407 33810 ft 475 kts 325°
2026-05-05 19:54 47.96897 16.98282 33811 ft 476 kts 325°
2026-05-05 19:55 48.02443 16.93010 33807 ft 476 kts 325°
2026-05-05 19:55 48.08041 16.87657 33805 ft 478 kts 324°
2026-05-05 19:56 48.13644 16.82282 33775 ft 479 kts 324°
2026-05-05 19:56 48.19226 16.76910 33775 ft 480 kts 324°
2026-05-05 19:57 48.24847 16.71488 33772 ft 480 kts 324°
2026-05-05 19:57 48.30446 16.66075 33767 ft 481 kts 325°
2026-05-05 19:58 48.36085 16.60610 33761 ft 482 kts 325°
2026-05-05 19:58 48.41703 16.55150 33757 ft 482 kts 324°
2026-05-05 19:59 48.47327 16.49669 33754 ft 482 kts 324°
2026-05-05 19:59 48.52922 16.44202 33735 ft 482 kts 324°
2026-05-05 20:00 48.58548 16.38689 33745 ft 481 kts 324°
2026-05-05 20:00 48.64162 16.33172 33734 ft 481 kts 324°
2026-05-05 20:01 48.69749 16.27668 33746 ft 481 kts 324°
2026-05-05 20:01 48.75354 16.22164 33738 ft 481 kts 326°
2026-05-05 20:02 48.81378 16.17685 33733 ft 485 kts 336°
2026-05-05 20:02 48.87676 16.13983 33753 ft 485 kts 337°
2026-05-05 20:03 48.93970 16.10283 33761 ft 485 kts 336°
2026-05-05 20:03 49.00230 16.06527 33763 ft 485 kts 336°
2026-05-05 20:04 49.06468 16.02745 33779 ft 486 kts 336°
2026-05-05 20:04 49.12604 15.99012 33768 ft 486 kts 336°
2026-05-05 20:05 49.18894 15.95180 33769 ft 487 kts 336°
2026-05-05 20:05 49.25188 15.91336 33761 ft 487 kts 336°
2026-05-05 20:06 49.31482 15.87482 33746 ft 487 kts 336°
2026-05-05 20:06 49.37780 15.83613 33748 ft 487 kts 336°
2026-05-05 20:07 49.44031 15.79764 33753 ft 487 kts 336°
2026-05-05 20:07 49.50056 15.75279 33749 ft 485 kts 328°
2026-05-05 20:08 49.55886 15.70087 33749 ft 486 kts 328°
2026-05-05 20:08 49.60741 15.65720 33748 ft 486 kts 328°
2026-05-05 20:09 49.66601 15.60494 33741 ft 487 kts 328°
2026-05-05 20:09 49.72463 15.55293 33737 ft 487 kts 328°
2026-05-05 20:10 49.78337 15.50074 33749 ft 487 kts 328°
2026-05-05 20:10 49.84175 15.44871 33738 ft 486 kts 328°
2026-05-05 20:11 49.90015 15.39648 33735 ft 485 kts 328°
2026-05-05 20:11 49.95818 15.34444 33733 ft 484 kts 328°
2026-05-05 20:12 50.01619 15.29226 33733 ft 483 kts 328°
2026-05-05 20:12 50.07408 15.24005 33745 ft 483 kts 328°
2026-05-05 20:13 50.13241 15.18728 33731 ft 485 kts 327°
2026-05-05 20:13 50.18592 15.13874 33739 ft 487 kts 327°
2026-05-05 20:14 50.24477 15.08521 33731 ft 488 kts 327°
2026-05-05 20:14 50.30336 15.03177 33731 ft 490 kts 327°
2026-05-05 20:15 50.36057 14.97944 33733 ft 490 kts 327°
2026-05-05 20:15 50.41878 14.92604 33753 ft 490 kts 327°
2026-05-05 20:16 50.47810 14.87612 33736 ft 492 kts 334°
2026-05-05 20:16 50.54324 14.84228 33742 ft 495 kts 344°
2026-05-05 20:17 50.61052 14.81907 33749 ft 494 kts 345°
2026-05-05 20:17 50.67722 14.79483 33758 ft 493 kts 344°
2026-05-05 20:18 50.74402 14.77027 33753 ft 493 kts 344°
2026-05-05 20:18 50.80554 14.74776 33764 ft 493 kts 344°
2026-05-05 20:19 50.87227 14.72306 33762 ft 490 kts 341°
2026-05-05 20:19 50.90354 14.70247 33756 ft 483 kts 324°
2026-05-05 20:19 50.92878 14.66933 33783 ft 475 kts 308°
2026-05-05 20:19 50.94836 14.62740 33788 ft 470 kts 296°
2026-05-05 20:20 50.96125 14.58028 33759 ft 463 kts 283°
2026-05-05 20:20 50.97796 14.48146 33781 ft 466 kts 282°
2026-05-05 20:21 50.99480 14.38164 33782 ft 470 kts 282°
2026-05-05 20:21 51.01200 14.28270 33616 ft 466 kts 282°
2026-05-05 20:21 51.02051 14.23419 33310 ft 466 kts 282°
2026-05-05 20:22 51.02918 14.18474 32926 ft 468 kts 282°
2026-05-05 20:22 51.03791 14.13484 32531 ft 468 kts 282°
2026-05-05 20:22 51.04627 14.08697 32177 ft 464 kts 282°
2026-05-05 20:22 51.05496 14.03712 31920 ft 461 kts 282°
2026-05-05 20:23 51.06286 13.99155 31518 ft 462 kts 282°
2026-05-05 20:23 51.07136 13.94235 30549 ft 461 kts 282°
2026-05-05 20:23 51.07979 13.89341 29973 ft 457 kts 282°
2026-05-05 20:23 51.08822 13.84422 29345 ft 476 kts 282°
2026-05-05 20:24 51.09709 13.79208 28681 ft 496 kts 282°
2026-05-05 20:24 51.10610 13.73925 28120 ft 493 kts 282°
2026-05-05 20:24 51.11509 13.68676 27493 ft 488 kts 282°
2026-05-05 20:24 51.12385 13.63543 26890 ft 485 kts 282°
2026-05-05 20:25 51.13261 13.58374 26363 ft 481 kts 282°
2026-05-05 20:25 51.14129 13.53235 25830 ft 479 kts 282°
2026-05-05 20:25 51.14977 13.48204 25210 ft 467 kts 282°
2026-05-05 20:25 51.15802 13.43300 23956 ft 455 kts 282°
2026-05-05 20:26 51.16601 13.38480 22424 ft 444 kts 281°
2026-05-05 20:26 51.17162 13.33695 20835 ft 435 kts 275°
2026-05-05 20:26 51.17430 13.28886 19570 ft 439 kts 269°
2026-05-05 20:26 51.17395 13.23942 19307 ft 454 kts 266°
2026-05-05 20:27 51.17360 13.19072 19248 ft 428 kts 267°
2026-05-05 20:27 51.17342 13.14329 18896 ft 426 kts 267°
2026-05-05 20:27 51.17327 13.09632 18419 ft 422 kts 267°
2026-05-05 20:27 51.17311 13.04984 17871 ft 419 kts 267°
2026-05-05 20:28 51.17293 13.00381 17308 ft 414 kts 267°
2026-05-05 20:28 51.17274 12.96048 16930 ft 407 kts 267°
2026-05-05 20:28 51.17254 12.91589 16562 ft 399 kts 267°
2026-05-05 20:28 51.17230 12.87190 16070 ft 395 kts 267°
2026-05-05 20:29 51.17277 12.82910 15455 ft 394 kts 274°
2026-05-05 20:29 51.18012 12.78759 14885 ft 396 kts 291°
2026-05-05 20:29 51.19171 12.74694 14398 ft 398 kts 292°
2026-05-05 20:29 51.20253 12.70806 14085 ft 396 kts 291°
2026-05-05 20:30 51.21334 12.66794 13786 ft 392 kts 290°
2026-05-05 20:30 51.22402 12.62741 13436 ft 389 kts 290°
2026-05-05 20:30 51.23433 12.58791 13054 ft 388 kts 290°
2026-05-05 20:30 51.24463 12.54837 12674 ft 386 kts 290°
2026-05-05 20:31 51.25441 12.50926 12279 ft 379 kts 285°
2026-05-05 20:31 51.25795 12.46804 11731 ft 374 kts 264°
2026-05-05 20:31 51.25453 12.42693 11197 ft 375 kts 257°
2026-05-05 20:31 51.24928 12.38620 10841 ft 373 kts 255°
2026-05-05 20:32 51.24373 12.34667 10542 ft 370 kts 255°
2026-05-05 20:32 51.23803 12.30702 10227 ft 367 kts 255°
2026-05-05 20:32 51.23232 12.26748 9853 ft 360 kts 255°
2026-05-05 20:32 51.22717 12.22957 9412 ft 338 kts 260°
2026-05-05 20:33 51.22759 12.19369 9206 ft 315 kts 278°
2026-05-05 20:33 51.23235 12.16068 8980 ft 297 kts 283°
2026-05-05 20:33 51.23785 12.12964 8588 ft 285 kts 284°
2026-05-05 20:33 51.24331 12.09980 8097 ft 280 kts 284°
2026-05-05 20:34 51.24880 12.07012 7566 ft 277 kts 285°
2026-05-05 20:34 51.25423 12.04069 7059 ft 277 kts 284°
2026-05-05 20:34 51.25945 12.01187 6913 ft 279 kts 285°
2026-05-05 20:34 51.26441 11.98384 6807 ft 278 kts 285°
2026-05-05 20:35 51.26949 11.95397 6807 ft 279 kts 284°
2026-05-05 20:35 51.27445 11.92422 6794 ft 278 kts 284°
2026-05-05 20:35 51.27936 11.89469 6794 ft 275 kts 284°
2026-05-05 20:35 51.28424 11.86522 6807 ft 274 kts 284°
2026-05-05 20:36 51.28909 11.83579 6797 ft 274 kts 284°
2026-05-05 20:36 51.29389 11.80671 6801 ft 274 kts 284°
2026-05-05 20:36 51.29876 11.77727 6805 ft 274 kts 284°
2026-05-05 20:36 51.30367 11.74764 6689 ft 277 kts 284°
2026-05-05 20:37 51.30801 11.71768 6231 ft 277 kts 274°
2026-05-05 20:37 51.30838 11.69739 5894 ft 273 kts 268°
2026-05-05 20:37 51.30684 11.65764 5205 ft 265 kts 265°
2026-05-05 20:37 51.30530 11.62864 4682 ft 259 kts 265°
2026-05-05 20:38 51.30369 11.60058 4194 ft 253 kts 265°
2026-05-05 20:38 51.30449 11.57377 3957 ft 234 kts 296°
2026-05-05 20:38 51.31498 11.55418 4012 ft 236 kts 336°
2026-05-05 20:38 51.33053 11.54967 4013 ft 228 kts 16°
2026-05-05 20:39 51.34366 11.56144 3998 ft 218 kts 50°
2026-05-05 20:39 51.35427 11.57835 3980 ft 216 kts 35°
2026-05-05 20:39 51.36649 11.59110 4005 ft 210 kts 44°
2026-05-05 20:39 51.37432 11.61031 3992 ft 208 kts 76°
2026-05-05 20:40 51.37775 11.63268 4020 ft 212 kts 75°
2026-05-05 20:40 51.38164 11.65577 4014 ft 215 kts 75°
2026-05-05 20:40 51.38552 11.67880 4000 ft 214 kts 75°
2026-05-05 20:40 51.38934 11.70133 3991 ft 211 kts 75°
2026-05-05 20:41 51.39306 11.72399 4008 ft 210 kts 76°
2026-05-05 20:41 51.39669 11.74675 3992 ft 211 kts 76°
2026-05-05 20:41 51.40032 11.76927 4005 ft 210 kts 76°
2026-05-05 20:41 51.40403 11.79177 4001 ft 210 kts 76°
2026-05-05 20:42 51.40764 11.81423 3991 ft 211 kts 76°
2026-05-05 20:42 51.41126 11.83691 4003 ft 209 kts 79°
2026-05-05 20:42 51.41324 11.86004 3977 ft 208 kts 91°
2026-05-05 20:42 51.41110 11.88276 4025 ft 208 kts 103°
2026-05-05 20:43 51.40791 11.90553 3882 ft 215 kts 93°
2026-05-05 20:43 51.40860 11.92952 3642 ft 215 kts 84°
2026-05-05 20:43 51.40996 11.95305 3418 ft 206 kts 84°
2026-05-05 20:43 51.41119 11.97520 3241 ft 193 kts 84°
2026-05-05 20:44 51.41231 11.99588 3074 ft 177 kts 84°
2026-05-05 20:44 51.41327 12.01489 2957 ft 165 kts 84°
2026-05-05 20:44 51.41414 12.03292 2701 ft 160 kts 84°
2026-05-05 20:44 51.41492 12.05035 2446 ft 156 kts 84°
2026-05-05 20:45 51.41653 12.08477 2084 ft 152 kts 84°
2026-05-05 20:45 51.41584 12.10193 1966 ft 160 kts 107°
2026-05-05 20:45 51.41132 12.11805 1817 ft 155 kts 105°
2026-05-05 20:46 51.40952 12.13449 1481 ft 149 kts 91°
2026-05-05 20:46 51.40954 12.15067 1122 ft 145 kts 87°
2026-05-05 20:46 51.40947 12.16041 1003 ft 150 kts 89°
2026-05-05 20:46 51.40954 12.16677 933 ft 151 kts 84°
2026-05-05 20:47 51.41002 12.17355 882 ft 152 kts 81°
2026-05-05 20:47 51.41063 12.18217 754 ft 154 kts 84°
2026-05-05 20:47 51.41062 12.19881 771 ft 141 kts 92°
2026-05-05 20:47 51.41101 12.21419 1732 ft 128 kts 80°
2026-05-05 20:48 51.41171 12.22987 2463 ft 166 kts 88°
2026-05-05 20:48 51.41175 12.25065 2665 ft 194 kts 89°
2026-05-05 20:48 51.41167 12.27249 3164 ft 202 kts 89°
2026-05-05 20:48 51.41159 12.29572 3676 ft 213 kts 90°
2026-05-05 20:49 51.40828 12.31918 4151 ft 224 kts 118°
2026-05-05 20:49 51.39701 12.33653 4763 ft 230 kts 150°
2026-05-05 20:49 51.38148 12.34222 4971 ft 236 kts 180°
2026-05-05 20:49 51.36545 12.33387 5002 ft 256 kts 211°
2026-05-05 20:50 51.35278 12.31352 5010 ft 262 kts 231°
2026-05-05 20:50 51.34572 12.29768 5006 ft 266 kts 233°
2026-05-05 20:50 51.33185 12.26461 5003 ft 267 kts 234°
2026-05-05 20:50 51.32506 12.24818 4988 ft 267 kts 234°
2026-05-05 20:51 51.31497 12.22346 4986 ft 264 kts 237°
2026-05-05 20:51 51.30954 12.19571 4984 ft 264 kts 266°
2026-05-05 20:51 51.31016 12.16606 5001 ft 271 kts 274°
2026-05-05 20:51 51.31204 12.13588 4995 ft 274 kts 275°
2026-05-05 20:52 51.31404 12.10604 4989 ft 272 kts 275°
2026-05-05 20:52 51.31608 12.07612 4983 ft 270 kts 275°
2026-05-05 20:52 51.31813 12.04627 4987 ft 269 kts 275°
2026-05-05 20:52 51.32020 12.01664 4992 ft 268 kts 275°
2026-05-05 20:53 51.32167 11.99442 5001 ft 268 kts 276°
2026-05-05 20:54 51.32225 11.98525 4991 ft 269 kts 276°
2026-05-05 20:55 51.32394 11.95566 5028 ft 265 kts 275°
2026-05-05 20:55 51.32556 11.92642 4914 ft 273 kts 275°
2026-05-05 20:55 51.32733 11.89594 4677 ft 276 kts 276°
2026-05-05 20:55 51.32906 11.86541 4413 ft 275 kts 276°
2026-05-05 20:56 51.33074 11.83545 4129 ft 270 kts 275°
2026-05-05 20:56 51.33233 11.80588 3767 ft 268 kts 276°
2026-05-05 20:56 51.33547 11.77705 3344 ft 260 kts 296°
2026-05-05 20:56 51.34693 11.75682 3069 ft 238 kts 336°
2026-05-05 20:57 51.36175 11.75191 3016 ft 201 kts 12°
2026-05-05 20:57 51.37301 11.76082 2992 ft 182 kts 50°
2026-05-05 20:57 51.37931 11.77788 2996 ft 182 kts 66°
2026-05-05 20:57 51.38401 11.79655 2990 ft 183 kts 71°
2026-05-05 20:58 51.38774 11.81565 3001 ft 183 kts 75°
2026-05-05 20:58 51.39069 11.83552 2996 ft 183 kts 78°
2026-05-05 20:58 51.39336 11.85538 2992 ft 181 kts 78°
2026-05-05 20:58 51.39543 11.87509 3007 ft 181 kts 82°
2026-05-05 20:59 51.39683 11.89500 3002 ft 182 kts 84°
2026-05-05 20:59 51.39793 11.91495 2990 ft 182 kts 85°
2026-05-05 20:59 51.39894 11.93523 2995 ft 183 kts 84°
2026-05-05 20:59 51.39990 11.95555 3001 ft 184 kts 85°
2026-05-05 21:00 51.40086 11.97592 3004 ft 181 kts 85°
2026-05-05 21:00 51.40178 11.99561 2996 ft 174 kts 85°
2026-05-05 21:00 51.40270 12.01522 2777 ft 176 kts 84°
2026-05-05 21:00 51.40358 12.03405 2536 ft 164 kts 84°
2026-05-05 21:01 51.40440 12.05170 2361 ft 155 kts 84°
2026-05-05 21:01 51.40519 12.06824 2139 ft 144 kts 85°
2026-05-05 21:01 51.40591 12.08378 1939 ft 137 kts 84°
2026-05-05 21:01 51.40663 12.09907 1780 ft 140 kts 84°
2026-05-05 21:02 51.40738 12.11485 1575 ft 142 kts 83°
2026-05-05 21:02 51.40811 12.13053 1392 ft 140 kts 84°
2026-05-05 21:02 51.40883 12.14656 1156 ft 148 kts 84°
2026-05-05 21:02 51.40965 12.16310 1005 ft 149 kts 84°
2026-05-05 21:03 51.41043 12.17981 845 ft 153 kts 84°
2026-05-05 21:03 51.41124 12.19682 592 ft 153 kts 84°
2026-05-05 21:03 51.41199 12.21322 464 ft 145 kts 84°
2026-05-05 21:03 51.41274 12.22763 466 ft 110 kts 87°
2026-05-05 21:04 51.41313 12.23716 472 ft 52 kts 90°
2026-05-05 21:04 51.41238 12.24190 469 ft 29 kts 117°
2026-05-05 21:04 51.41180 12.24312 469 ft 6 kts 171°
2026-05-05 21:04 51.41162 12.24267 466 ft 5 kts 255°
2026-05-05 21:05 51.41162 12.24206 467 ft 5 kts 271°
2026-05-05 21:05 51.41162 12.24146 467 ft 5 kts 269°
2026-05-05 21:05 51.41159 12.24086 468 ft 5 kts 265°
2026-05-05 21:05 51.41156 12.24025 472 ft 5 kts 266°
2026-05-05 21:06 51.41153 12.23965 468 ft 6 kts 266°
2026-05-05 21:06 51.41150 12.23890 467 ft 8 kts 265°
2026-05-05 21:06 51.41144 12.23776 466 ft 12 kts 265°
2026-05-05 21:06 51.41138 12.23622 470 ft 15 kts 266°
2026-05-05 21:07 51.41128 12.23444 470 ft 17 kts 265°
2026-05-05 21:07 51.41118 12.23239 469 ft 19 kts 266°
2026-05-05 21:07 51.41109 12.23010 467 ft 22 kts 266°
2026-05-05 21:07 51.41097 12.22755 465 ft 24 kts 266°
2026-05-05 21:08 51.41086 12.22514 463 ft 22 kts 266°
2026-05-05 21:08 51.41074 12.22263 461 ft 23 kts 266°
2026-05-05 21:08 51.41062 12.21995 459 ft 25 kts 266°
2026-05-05 21:08 51.41053 12.21780 457 ft 7 kts 265°
2026-05-05 21:09 51.41048 12.21685 456 ft 10 kts 266°
2026-05-05 21:09 51.41039 12.21560 455 ft 13 kts 259°
2026-05-05 21:09 51.41028 12.21416 454 ft 14 kts 272°
2026-05-05 21:09 51.41022 12.21242 452 ft 19 kts 263°
2026-05-05 21:10 51.41009 12.20997 450 ft 26 kts 266°
2026-05-05 21:10 51.40998 12.20713 447 ft 14 kts 257°
2026-05-05 21:10 51.40953 12.20631 447 ft 7 kts 201°
2026-05-05 21:10 51.40908 12.20588 446 ft 9 kts 243°
2026-05-05 21:11 51.40915 12.20461 445 ft 14 kts 288°
2026-05-05 21:11 51.40927 12.20371 434 ft 0 kts 269°
2026-05-05 21:11 51.40919 12.20357 436 ft 3 kts 217°
2026-05-05 21:11 51.40894 12.20336 435 ft 0 kts 195°
2026-05-05 21:12 51.40886 12.20337 436 ft 3 kts 179°
2026-05-05 21:12 51.40841 12.20342 430 ft 8 kts 175°
2026-05-05 21:12 51.40814 12.20344 439 ft 0 kts 177°
2026-05-05 21:12 51.40813 12.20344 440 ft 1 kts 175°